Showing default

BOTSAT-1, 63216

Orbit data source: Space-Track

BOTSAT-1, 63216 is a Batswana payload satellite in SSO that was launched on Sat, 15 Mar 2025 UTC via an FALCON 9 launch vehicle from the Air Force Western Test Range (AFWTR). Payload-class satellites include a variety of spacecraft equipped with specific instruments for various scientific and technological missions. These include communications satellites like Starlink; space stations such as the ISS; scientific satellites like the Hubble; Earth observation satellites from companies like Planet Labs, Umbra, and HawkEye 360; GPS; miniature CubeSats for education and research; and military/defense satellites.

Loading next visibility...
Identifier
63216, 2025-052G
Orbit
SSO
Country
Flag of BWBW / BWA
Related business
Manufacturer
Endurosat
Mission
Operational Amateur Technology
Bus & Motor
CUBESAT 3U, Unknown motor
Mass
5 kg wet, 5 kg dry
Launch date (UTC)
2025-03-15 (1 year ago)
Launch vehicle
FALCON 9
Launch site
Air Force Western Test Range (AFWTR)
Object type
Payload
Rocket body
Debris
Shape & HBR
Box + 4 Pan, 14.5 m
Radar Cross Section
0.035 m², Medium (>0.1 m² and < 1m²)

Expand to show TLE details & history
Last TLE update: 18 hours ago

TLE from 18 hours ago
0 BOTSAT-1
1 63216U 25052G   26166.39055734  .00007402  00000-0  28078-3 0  9990
2 63216  97.3895  60.2559 0004132 113.6226 246.5448 15.27146086 69681
Epoch: 2026-06-15T09:22Z
TLE epoch observation values (Epoch: 2026-06-15T09:22:24.154Z)
Latitude
0.00008°
Longitude
15.97762°
Altitude
488.579 km
Speed
7.62 km/s
True Right ascension
04h 01m 01s
True Declination
0° 00' 00"
Sunlit
Object was in daylight at epoch
Visualization orbit readout
Latitude
Unknown
Longitude
Unknown
Altitude
Unknown
Speed
Unknown
Apparent Right ascension
Unknown
Apparent Declination
Unknown
Sunlit
N/A
Visualization observer readout
Local Sidereal Time
13:41:07
Azimuth
Unknown
Elevation
Unknown
Doppler factor
Unknown
Orbital elements
Apogee altitude
484.139 km
Perigee altitude
478.47 km
Semi-major axis
6,859.441 km
Eccentricity
0.00041
Inclination
97.3895°
RAAN
60.2559°
Arg. of periapsis
113.6226°
True anomaly
246.50137°
Mean anomaly
246.5448°
Eccentric anomaly
246.52309°
Mean motion
3.82041 °/min
Orbital period
94.23 mins
BSTAR
0.00028078
Loading maneuver chart data...
Computing Atmospheric mass density...
Loading historical data...
Loading historical data...
Loading historical data...
Loading historical data...
Loading historical data...
Loading historical data...
Loading historical data...

Documentation

Showing up to 5 results
|